sat.trackr.live / text

‹ back to catalog

STARLINK-30205

NORAD 57408 · 2023-102E

PAYLOAD ACTIVE UNKNOWN

§ Identity

Operator
Country
US
Launch date
2023-07-20
Launch site
AFWTR
Launch vehicle
Mass (kg)
RCS (m²)

Purposes: comms

External: N2YO · Heavens-Above · Gunter

§ Orbital elements

Epoch: 2026-05-24T18:46:02.650368Z

Period
94.27 min
Inclination
43.0015°
Eccentricity
0.0001454
Mean motion
15.27578393 rev/d
Perigee alt
482.1 km
Apogee alt
484.1 km
Semi-major
6,861.2 km
B*
4.8693e-5
RAAN
179.1620°
Arg perigee
272.2665°
Mean anomaly
87.8020°
Rev number
15,787

§ Raw data

STARLINK-302051 57408U 23102E   26144.78197512  .00001078  00000+0  48693-4 0  99982 57408  43.0015 179.1620 0001454 272.2665  87.8020 15.27578393157872

JSON: /api/v1/satellites/57408 · /tle

For live sub-satellite position, see the globe view (requires WebGL).

§ Visibility from observer

Set your observer location to see the next 7 days of passes ≥ 10°. The values pass through the URL so the page stays shareable.

No JS? Fill the form by hand. The geolocation button needs JavaScript.